Simultaneous Nadir Overpasses (SNOs) Predictions

Prediction of SNOs between GOES-16 and LANDSAT-8 Satellite Orbit:

Table of predicted SNOs for the next 14.0 days since TLE Epoch: 2/28/2025
Index Date Time (GOES-16) GOES-16 Lat,Lon LANDSAT-8 Lat,Lon Distance(km) Time Diff (sec)
1 03/02/2025 03:03:21 -0.05, -75.19 0.37, -73.18 227.45 80
2 03/02/2025 15:24:37 0.05, -75.22 0.70, -78.35 355.55 80
3 03/04/2025 15:12:26 0.05, -75.23 0.06, -75.40 18.57 80
4 03/06/2025 15:02:54 0.04, -75.24 -0.56, -72.44 319.07 80
5 03/07/2025 03:24:18 -0.04, -75.22 -0.54, -77.63 273.62 80
6 03/09/2025 03:09:25 -0.04, -75.24 0.06, -74.67 64.87 80
7 03/11/2025 02:57:12 -0.04, -75.27 0.71, -71.71 404.58 80
8 03/11/2025 15:18:27 0.04, -75.30 0.39, -76.86 177.98 80
9 03/13/2025 15:08:53 0.04, -75.34 -0.24, -73.90 163.44 80
10 03/14/2025 03:30:17 -0.04, -75.33 -0.83, -79.10 427.77 80
